| time (UTC) | temp F | wind direction | speed MPH | gust MPH | rain 1hr in | rain 24hr in | rain mn in | humidity % | barometer mb |
| 20260505020156 | 62 | 0 | 0.0 | 0.0 | 0.00 | 0.00 | 0.00 | 9 | 1007.8 |
| 20260505015704 | 62 | 0 | 0.0 | 0.0 | 0.00 | 0.00 | 0.00 | 9 | 1007.6 |
| 20260505015701 | 62 | 0 | 0.0 | 0.0 | 0.00 | 0.00 | 0.00 | 9 | 1007.6 |
| 20260505015515 | 62 | 0 | 0.0 | 0.0 | 0.00 | 0.00 | 0.00 | 9 | 1007.6 |
| 20260505015050 | 62 | 0 | 0.0 | 0.0 | 0.00 | 0.00 | 0.00 | 9 | 1007.7 |
| 20260505014615 | 62 | 292 | 0.0 | 1.0 | 0.00 | 0.00 | 0.00 | 9 | 1007.8 |
| 20260505014602 | 62 | 292 | 0.0 | 1.0 | 0.00 | 0.00 | 0.00 | 9 | 1007.8 |
| 20260505014130 | 62 | 0 | 0.0 | 0.0 | 0.00 | 0.00 | 0.00 | 9 | 1007.9 |
| 20260505013704 | 62 | 0 | 0.0 | 0.0 | 0.00 | 0.00 | 0.00 | 9 | 1007.8 |
| 20260505013640 | 62 | 0 | 0.0 | 0.0 | 0.00 | 0.00 | 0.00 | 9 | 1007.8 |
| 20260505013214 | 62 | 0 | 0.0 | 0.0 | 0.00 | 0.00 | 0.00 | 9 | 1007.7 |
| 20260505012721 | 62 | 292 | 0.0 | 1.0 | 0.00 | 0.00 | 0.00 | 9 | 1007.8 |
| 20260505012455 | 62 | 0 | 0.0 | 1.0 | 0.00 | 0.00 | 0.00 | 9 | 1007.8 |
| 20260505012241 | 62 | 292 | 1.0 | 2.0 | 0.00 | 0.00 | 0.00 | 9 | 1007.9 |
| 20260505012033 | 62 | 292 | 0.0 | 1.0 | 0.00 | 0.00 | 0.00 | 9 | 1007.8 |
| 20260505011532 | 62 | 292 | 1.0 | 2.0 | 0.00 | 0.00 | 0.00 | 9 | 1008.0 |
| 20260505011346 | 62 | 292 | 2.0 | 3.0 | 0.00 | 0.00 | 0.00 | 9 | 1008.1 |
| 20260505011042 | 62 | 292 | 2.0 | 3.0 | 0.00 | 0.00 | 0.00 | 9 | 1007.9 |
| 20260505010551 | 62 | 315 | 1.0 | 2.0 | 0.00 | 0.00 | 0.00 | 9 | 1008.1 |
| 20260505010519 | 62 | 315 | 1.0 | 2.0 | 0.00 | 0.00 | 0.00 | 9 | 1008.1 |
| 20260505005652 | 62 | 292 | 2.0 | 3.0 | 0.00 | 0.00 | 0.00 | 9 | 1008.1 |
| 20260505005648 | 62 | 292 | 2.0 | 3.0 | 0.00 | 0.00 | 0.00 | 9 | 1008.1 |
| 20260505005445 | 62 | 315 | 1.0 | 2.0 | 0.00 | 0.00 | 0.00 | 9 | 1008.0 |
| 20260505005020 | 62 | 315 | 3.0 | 3.0 | 0.00 | 0.00 | 0.00 | 9 | 1007.9 |
| 20260505004535 | 62 | 315 | 3.0 | 3.0 | 0.00 | 0.00 | 0.00 | 9 | 1008.0 |
| 20260505004105 | 62 | 315 | 3.0 | 4.0 | 0.00 | 0.00 | 0.00 | 9 | 1008.1 |
| 20260505003701 | 62 | 315 | 4.0 | 6.0 | 0.00 | 0.00 | 0.00 | 9 | 1008.3 |
| 20260505003640 | 62 | 337 | 4.0 | 4.0 | 0.00 | 0.00 | 0.00 | 9 | 1008.1 |
| 20260505003205 | 62 | 292 | 2.0 | 3.0 | 0.00 | 0.00 | 0.00 | 9 | 1008.1 |
| 20260505002713 | 62 | 270 | 3.0 | 3.0 | 0.00 | 0.00 | 0.00 | 9 | 1008.1 |
| 20260505002711 | 62 | 270 | 3.0 | 3.0 | 0.00 | 0.00 | 0.00 | 9 | 1008.1 |
| 20260505002709 | 62 | 270 | 3.0 | 3.0 | 0.00 | 0.00 | 0.00 | 9 | 1008.1 |
| 20260505002431 | 62 | 270 | 2.0 | 3.0 | 0.00 | 0.00 | 0.00 | 9 | 1008.1 |
| 20260505001934 | 62 | 292 | 1.0 | 2.0 | 0.00 | 0.00 | 0.00 | 9 | 1008.2 |
| 20260505001648 | 62 | 292 | 1.0 | 2.0 | 0.00 | 0.00 | 0.00 | 9 | 1008.2 |
| 20260505001516 | 62 | 292 | 1.0 | 2.0 | 0.00 | 0.00 | 0.00 | 9 | 1008.2 |
| 20260505001033 | 62 | 292 | 0.0 | 1.0 | 0.00 | 0.00 | 0.00 | 9 | 1008.3 |
| 20260505000648 | 62 | 315 | 1.0 | 2.0 | 0.00 | 0.00 | 0.00 | 9 | 1008.3 |
| 20260505000616 | 62 | 315 | 1.0 | 2.0 | 0.00 | 0.00 | 0.00 | 9 | 1008.3 |
| 20260505000150 | 62 | 292 | 1.0 | 2.0 | 0.00 | 0.00 | 0.00 | 9 | 1008.4 |
| 20260504235703 | 62 | 315 | 0.0 | 1.0 | 0.00 | 0.00 | 0.00 | 9 | 1008.3 |
| 20260504235700 | 62 | 315 | 0.0 | 1.0 | 0.00 | 0.00 | 0.00 | 9 | 1008.3 |
| 20260504235503 | 62 | 0 | 1.0 | 2.0 | 0.00 | 0.00 | 0.00 | 9 | 1008.3 |
| 20260504235046 | 62 | 292 | 0.0 | 1.0 | 0.00 | 0.00 | 0.00 | 9 | 1008.3 |
| 20260504234546 | 62 | 315 | 0.0 | 1.0 | 0.00 | 0.00 | 0.00 | 9 | 1008.4 |
| 20260504234056 | 63 | 315 | 1.0 | 2.0 | 0.00 | 0.00 | 0.00 | 9 | 1008.3 |
| 20260504233632 | 63 | 315 | 2.0 | 2.0 | 0.00 | 0.00 | 0.00 | 9 | 1008.5 |
| 20260504233157 | 63 | 315 | 3.0 | 3.0 | 0.00 | 0.00 | 0.00 | 9 | 1008.4 |
| 20260504232705 | 64 | 292 | 3.0 | 3.0 | 0.00 | 0.00 | 0.00 | 9 | 1008.3 |
| 20260504232702 | 64 | 292 | 3.0 | 3.0 | 0.00 | 0.00 | 0.00 | 9 | 1008.3 |
| 20260504232437 | 64 | 292 | 3.0 | 4.0 | 0.00 | 0.00 | 0.00 | 9 | 1008.4 |
| 20260504231955 | 64 | 292 | 3.0 | 3.0 | 0.00 | 0.00 | 0.00 | 9 | 1008.4 |
| 20260504231540 | 64 | 292 | 4.0 | 6.0 | 0.00 | 0.00 | 0.00 | 9 | 1008.3 |
| 20260504231504 | 64 | 292 | 4.0 | 6.0 | 0.00 | 0.00 | 0.00 | 9 | 1008.3 |
| 20260504231034 | 64 | 292 | 3.0 | 4.0 | 0.00 | 0.00 | 0.00 | 9 | 1008.3 |
| 20260504230650 | 64 | 292 | 2.0 | 3.0 | 0.00 | 0.00 | 0.00 | 9 | 1008.3 |
| 20260504230617 | 64 | 292 | 2.0 | 3.0 | 0.00 | 0.00 | 0.00 | 9 | 1008.3 |
| 20260504230152 | 64 | 292 | 3.0 | 3.0 | 0.00 | 0.00 | 0.00 | 9 | 1008.3 |
| 20260504225657 | 64 | 292 | 3.0 | 4.0 | 0.00 | 0.00 | 0.00 | 9 | 1008.4 |
| 20260504225500 | 64 | 292 | 3.0 | 3.0 | 0.00 | 0.00 | 0.00 | 9 | 1008.4 |
| 20260504225314 | 64 | 292 | 3.0 | 4.0 | 0.00 | 0.00 | 0.00 | 9 | 1008.3 |
| 20260504225018 | 64 | 292 | 3.0 | 4.0 | 0.00 | 0.00 | 0.00 | 9 | 1008.4 |
| 20260504224528 | 64 | 292 | 3.0 | 4.0 | 0.00 | 0.00 | 0.00 | 9 | 1008.3 |
| 20260504224058 | 64 | 292 | 3.0 | 3.0 | 0.00 | 0.00 | 0.00 | 9 | 1008.4 |
| 20260504223601 | 64 | 292 | 3.0 | 4.0 | 0.00 | 0.00 | 0.00 | 9 | 1008.3 |
| 20260504223546 | 64 | 315 | 3.0 | 4.0 | 0.00 | 0.00 | 0.00 | 9 | 1008.4 |
| 20260504223132 | 64 | 270 | 3.0 | 4.0 | 0.00 | 0.00 | 0.00 | 9 | 1008.4 |
| 20260504222731 | 64 | 292 | 5.0 | 6.0 | 0.00 | 0.00 | 0.00 | 9 | 1008.4 |
| 20260504222726 | 64 | 292 | 5.0 | 6.0 | 0.00 | 0.00 | 0.00 | 9 | 1008.4 |
| 20260504222509 | 64 | 270 | 3.0 | 6.0 | 0.00 | 0.00 | 0.00 | 9 | 1008.3 |
| 20260504222255 | 64 | 292 | 5.0 | 6.0 | 0.00 | 0.00 | 0.00 | 9 | 1008.2 |
| 20260504222046 | 64 | 270 | 3.0 | 4.0 | 0.00 | 0.00 | 0.00 | 9 | 1008.2 |
| 20260504221545 | 64 | 292 | 4.0 | 6.0 | 0.00 | 0.00 | 0.00 | 9 | 1008.1 |
| 20260504221400 | 63 | 292 | 4.0 | 6.0 | 0.00 | 0.00 | 0.00 | 9 | 1008.0 |
| 20260504221055 | 63 | 292 | 6.0 | 8.0 | 0.00 | 0.00 | 0.00 | 9 | 1008.0 |
| 20260504220604 | 63 | 270 | 2.0 | 3.0 | 0.00 | 0.00 | 0.00 | 9 | 1008.0 |
| 20260504220530 | 63 | 270 | 2.0 | 3.0 | 0.00 | 0.00 | 0.00 | 9 | 1008.0 |
| 20260504220116 | 63 | 292 | 1.0 | 2.0 | 0.00 | 0.00 | 0.00 | 9 | 1008.0 |
| 20260504215704 | 63 | 292 | 2.0 | 2.0 | 0.00 | 0.00 | 0.00 | 9 | 1008.1 |
| 20260504215702 | 63 | 292 | 2.0 | 2.0 | 0.00 | 0.00 | 0.00 | 9 | 1008.1 |
| 20260504215425 | 63 | 315 | 2.0 | 3.0 | 0.00 | 0.00 | 0.00 | 9 | 1008.1 |
| 20260504215308 | 63 | 292 | 1.0 | 2.0 | 0.00 | 0.00 | 0.00 | 9 | 1008.1 |
| 20260504214929 | 63 | 0 | 0.0 | 2.0 | 0.00 | 0.00 | 0.00 | 9 | 1007.8 |
| 20260504214456 | 63 | 337 | 1.0 | 2.0 | 0.00 | 0.00 | 0.00 | 9 | 1008.1 |
| 20260504214412 | 63 | 337 | 2.0 | 2.0 | 0.00 | 0.00 | 0.00 | 9 | 1008.0 |
| 20260504214040 | 63 | 0 | 0.0 | 1.0 | 0.00 | 0.00 | 0.00 | 9 | 1008.0 |
| 20260504213626 | 62 | 337 | 2.0 | 2.0 | 0.00 | 0.00 | 0.00 | 9 | 1008.0 |
| 20260504213545 | 62 | 337 | 2.0 | 3.0 | 0.00 | 0.00 | 0.00 | 9 | 1008.0 |
| 20260504213131 | 62 | 292 | 1.0 | 2.0 | 0.00 | 0.00 | 0.00 | 9 | 1007.7 |
| 20260504212723 | 62 | 292 | 2.0 | 3.0 | 0.00 | 0.00 | 0.00 | 9 | 1007.9 |
| 20260504212721 | 62 | 292 | 2.0 | 3.0 | 0.00 | 0.00 | 0.00 | 9 | 1007.9 |
| 20260504212458 | 62 | 292 | 2.0 | 3.0 | 0.00 | 0.00 | 0.00 | 9 | 1008.0 |
| 20260504212320 | 62 | 292 | 2.0 | 3.0 | 0.00 | 0.00 | 0.00 | 9 | 1008.0 |
| 20260504211914 | 62 | 292 | 2.0 | 3.0 | 0.00 | 0.00 | 0.00 | 9 | 1007.7 |
| 20260504211432 | 63 | 315 | 1.0 | 2.0 | 0.00 | 0.00 | 0.00 | 9 | 1007.7 |
| 20260504211027 | 63 | 0 | 0.0 | 0.0 | 0.00 | 0.00 | 0.00 | 9 | 1007.6 |
| 20260504210614 | 63 | 0 | 0.0 | 0.0 | 0.00 | 0.00 | 0.00 | 9 | 1007.6 |
| 20260504210542 | 64 | 0 | 0.0 | 0.0 | 0.00 | 0.00 | 0.00 | 9 | 1007.4 |
| 20260504210126 | 64 | 0 | 0.0 | 0.0 | 0.00 | 0.00 | 0.00 | 9 | 1007.5 |
| 20260504205711 | 64 | 0 | 0.0 | 0.0 | 0.00 | 0.00 | 0.00 | 9 | 1007.3 |
| 20260504205449 | 64 | 112 | 0.0 | 2.0 | 0.00 | 0.00 | 0.00 | 9 | 1007.3 |
| 20260504205258 | 64 | 0 | 0.0 | 0.0 | 0.00 | 0.00 | 0.00 | 9 | 1007.4 |
| 20260504204956 | 65 | 135 | 1.0 | 3.0 | 0.00 | 0.00 | 0.00 | 9 | 1007.5 |
| 20260504204530 | 65 | 90 | 5.0 | 6.0 | 0.00 | 0.00 | 0.00 | 9 | 1007.2 |
| 20260504204403 | 65 | 90 | 3.0 | 6.0 | 0.00 | 0.00 | 0.00 | 9 | 1007.4 |
| 20260504204112 | 65 | 112 | 4.0 | 8.0 | 0.00 | 0.00 | 0.00 | 9 | 1007.1 |
| 20260504203612 | 65 | 112 | 3.0 | 6.0 | 0.00 | 0.00 | 0.00 | 9 | 1007.2 |
| 20260504203535 | 65 | 112 | 3.0 | 6.0 | 0.00 | 0.00 | 0.00 | 9 | 1007.2 |
| 20260504203121 | 65 | 90 | 1.0 | 3.0 | 0.00 | 0.00 | 0.00 | 9 | 1007.2 |
| 20260504202709 | 65 | 67 | 2.0 | 3.0 | 0.00 | 0.00 | 0.00 | 9 | 1007.1 |
| 20260504202707 | 65 | 67 | 2.0 | 3.0 | 0.00 | 0.00 | 0.00 | 9 | 1007.1 |
| 20260504202426 | 65 | 90 | 2.0 | 4.0 | 0.00 | 0.00 | 0.00 | 9 | 1006.8 |
| 20260504202249 | 66 | 112 | 4.0 | 6.0 | 0.00 | 0.00 | 0.00 | 8 | 1007.0 |
| 20260504202010 | 66 | 112 | 3.0 | 6.0 | 0.00 | 0.00 | 0.00 | 8 | 1006.9 |
| 20260504201527 | 66 | 0 | 0.0 | 2.0 | 0.00 | 0.00 | 0.00 | 8 | 1006.9 |
| 20260504201409 | 66 | 90 | 1.0 | 2.0 | 0.00 | 0.00 | 0.00 | 8 | 1006.7 |
| 20260504201057 | 66 | 135 | 3.0 | 4.0 | 0.00 | 0.00 | 0.00 | 8 | 1006.7 |
| 20260504200535 | 66 | 67 | 2.0 | 4.0 | 0.00 | 0.00 | 0.00 | 8 | 1006.6 |
| 20260504200117 | 66 | 292 | 0.0 | 1.0 | 0.00 | 0.00 | 0.00 | 8 | 1006.5 |
| 20260504195706 | 67 | 315 | 0.0 | 3.0 | 0.00 | 0.00 | 0.00 | 8 | 1006.5 |
| 20260504195442 | 68 | 0 | 0.0 | 0.0 | 0.00 | 0.00 | 0.00 | 8 | 1006.4 |
| 20260504195018 | 68 | 292 | 1.0 | 1.0 | 0.00 | 0.00 | 0.00 | 8 | 1006.4 |
| 20260504194702 | 68 | 202 | 0.0 | 1.0 | 0.00 | 0.00 | 0.00 | 8 | 1006.3 |
| 20260504194533 | 68 | 0 | 0.0 | 1.0 | 0.00 | 0.00 | 0.00 | 8 | 1006.4 |
| 20260504194103 | 68 | 292 | 0.0 | 2.0 | 0.00 | 0.00 | 0.00 | 8 | 1006.5 |
| 20260504193637 | 68 | 270 | 3.0 | 4.0 | 0.00 | 0.00 | 0.00 | 8 | 1006.3 |
| 20260504193203 | 67 | 0 | 0.0 | 1.0 | 0.00 | 0.00 | 0.00 | 8 | 1006.1 |
| 20260504192707 | 66 | 90 | 3.0 | 6.0 | 0.00 | 0.00 | 0.00 | 8 | 1006.1 |
| 20260504192430 | 66 | 67 | 3.0 | 4.0 | 0.00 | 0.00 | 0.00 | 8 | 1006.0 |
| 20260504192304 | 66 | 45 | 0.0 | 3.0 | 0.00 | 0.00 | 0.00 | 8 | 1005.9 |
| 20260504191957 | 67 | 0 | 0.0 | 0.0 | 0.00 | 0.00 | 0.00 | 8 | 1006.0 |
| 20260504191520 | 67 | 315 | 1.0 | 2.0 | 0.00 | 0.00 | 0.00 | 8 | 1005.8 |
| 20260504191439 | 68 | 0 | 0.0 | 0.0 | 0.00 | 0.00 | 0.00 | 8 | 1005.7 |
| 20260504191106 | 68 | 0 | 0.0 | 1.0 | 0.00 | 0.00 | 0.00 | 8 | 1005.7 |
| 20260504190614 | 68 | 292 | 2.0 | 2.0 | 0.00 | 0.00 | 0.00 | 8 | 1005.6 |
| 20260504190550 | 68 | 292 | 2.0 | 2.0 | 0.00 | 0.00 | 0.00 | 8 | 1005.7 |
| 20260504190122 | 68 | 270 | 1.0 | 2.0 | 0.00 | 0.00 | 0.00 | 8 | 1005.5 |
| 20260504185657 | 69 | 0 | 0.0 | 0.0 | 0.00 | 0.00 | 0.00 | 8 | 1005.5 |
| 20260504185547 | 69 | 0 | 0.0 | 0.0 | 0.00 | 0.00 | 0.00 | 8 | 1005.5 |
| 20260504185456 | 68 | 0 | 0.0 | 0.0 | 0.00 | 0.00 | 0.00 | 8 | 1005.5 |
| 20260504185015 | 69 | 0 | 0.0 | 0.0 | 0.00 | 0.00 | 0.00 | 8 | 1005.3 |
| 20260504184639 | 69 | 0 | 0.0 | 0.0 | 0.00 | 0.00 | 0.00 | 8 | 1005.3 |
| 20260504184525 | 69 | 0 | 0.0 | 0.0 | 0.00 | 0.00 | 0.00 | 8 | 1005.2 |
| 20260504184054 | 69 | 0 | 0.0 | 0.0 | 0.00 | 0.00 | 0.00 | 8 | 1005.2 |
| 20260504183715 | 70 | 292 | 3.0 | 3.0 | 0.00 | 0.00 | 0.00 | 7 | 1005.2 |
| 20260504183636 | 71 | 315 | 3.0 | 4.0 | 0.00 | 0.00 | 0.00 | 7 | 1005.2 |
| 20260504183211 | 71 | 0 | 0.0 | 1.0 | 0.00 | 0.00 | 0.00 | 7 | 1005.2 |
| 20260504182720 | 73 | 315 | 3.0 | 4.0 | 0.00 | 0.00 | 0.00 | 7 | 1005.1 |
| 20260504182716 | 73 | 315 | 3.0 | 4.0 | 0.00 | 0.00 | 0.00 | 7 | 1005.1 |
| 20260504182507 | 74 | 315 | 0.0 | 4.0 | 0.00 | 0.00 | 0.00 | 7 | 1004.9 |
| 20260504182354 | 74 | 0 | 0.0 | 0.0 | 0.00 | 0.00 | 0.00 | 7 | 1004.8 |
| 20260504181903 | 75 | 0 | 0.0 | 2.0 | 0.00 | 0.00 | 0.00 | 6 | 1004.8 |
| 20260504181543 | 75 | 90 | 0.0 | 2.0 | 0.00 | 0.00 | 0.00 | 6 | 1004.8 |
| 20260504181444 | 75 | 0 | 0.0 | 2.0 | 0.00 | 0.00 | 0.00 | 6 | 1004.7 |
| 20260504181040 | 75 | 67 | 2.0 | 2.0 | 0.00 | 0.00 | 0.00 | 6 | 1004.7 |
| 20260504180620 | 76 | 0 | 0.0 | 0.0 | 0.00 | 0.00 | 0.00 | 6 | 1004.7 |
| 20260504180154 | 76 | 0 | 0.0 | 1.0 | 0.00 | 0.00 | 0.00 | 6 | 1004.6 |
| 20260504175700 | 76 | 0 | 0.0 | 0.0 | 0.00 | 0.00 | 0.00 | 6 | 1004.6 |
| 20260504175401 | 77 | 112 | 0.0 | 1.0 | 0.00 | 0.00 | 0.00 | 6 | 1004.6 |
| 20260504175329 | 77 | 112 | 0.0 | 1.0 | 0.00 | 0.00 | 0.00 | 6 | 1004.6 |
| 20260504174951 | 77 | 0 | 0.0 | 0.0 | 0.00 | 0.00 | 0.00 | 6 | 1004.7 |
| 20260504174444 | 76 | 0 | 0.0 | 0.0 | 0.00 | 0.00 | 0.00 | 6 | 1004.7 |
| 20260504174040 | 76 | 0 | 0.0 | 0.0 | 0.00 | 0.00 | 0.00 | 6 | 1004.8 |
| 20260504173611 | 76 | 112 | 0.0 | 2.0 | 0.00 | 0.00 | 0.00 | 6 | 1004.6 |
| 20260504173554 | 76 | 0 | 0.0 | 0.0 | 0.00 | 0.00 | 0.00 | 6 | 1004.8 |
| 20260504173126 | 75 | 112 | 0.0 | 1.0 | 0.00 | 0.00 | 0.00 | 6 | 1004.8 |
| 20260504172706 | 76 | 112 | 1.0 | 3.0 | 0.00 | 0.00 | 0.00 | 6 | 1004.8 |
| 20260504172701 | 76 | 112 | 1.0 | 3.0 | 0.00 | 0.00 | 0.00 | 6 | 1004.8 |
| 20260504172346 | 76 | 0 | 0.0 | 0.0 | 0.00 | 0.00 | 0.00 | 6 | 1004.7 |
| 20260504171932 | 75 | 90 | 3.0 | 3.0 | 0.00 | 0.00 | 0.00 | 6 | 1004.8 |
| 20260504171511 | 75 | 67 | 3.0 | 4.0 | 0.00 | 0.00 | 0.00 | 6 | 1004.5 |
| 20260504171046 | 75 | 67 | 2.0 | 3.0 | 0.00 | 0.00 | 0.00 | 6 | 1004.5 |
| 20260504170605 | 75 | 90 | 4.0 | 6.0 | 0.00 | 0.00 | 0.00 | 6 | 1004.6 |
| 20260504170121 | 75 | 67 | 2.0 | 4.0 | 0.00 | 0.00 | 0.00 | 6 | 1004.6 |
| 20260504160124 | 74 | 112 | 1.0 | 3.0 | 0.00 | 0.00 | 0.00 | 7 | 1004.9 |
| 20260504151038 | 69 | 67 | 5.0 | 8.0 | 0.00 | 0.00 | 0.00 | 8 | 1005.4 |
| 20260504150621 | 68 | 67 | 6.0 | 9.0 | 0.00 | 0.00 | 0.00 | 8 | 1005.5 |
| 20260504150156 | 69 | 67 | 3.0 | 4.0 | 0.00 | 0.00 | 0.00 | 8 | 1005.6 |
| 20260504141111 | 70 | 112 | 4.0 | 6.0 | 0.00 | 0.00 | 0.00 | 8 | 1006.0 |
| 20260504140611 | 71 | 90 | 3.0 | 6.0 | 0.00 | 0.00 | 0.00 | 8 | 1005.9 |
| 20260504140121 | 71 | 90 | 6.0 | 8.0 | 0.00 | 0.00 | 0.00 | 8 | 1006.1 |
| 20260504130608 | 68 | 22 | 1.0 | 3.0 | 0.00 | 0.00 | 0.00 | 9 | 1007.0 |
| 20260504130536 | 68 | 22 | 1.0 | 3.0 | 0.00 | 0.00 | 0.00 | 9 | 1007.0 |
| 20260504130120 | 66 | 90 | 2.0 | 4.0 | 0.00 | 0.00 | 0.00 | 9 | 1007.0 |
| 20260504120127 | 64 | 67 | 5.0 | 6.0 | 0.00 | 0.00 | 0.00 | 9 | 1007.6 |
| 20260504110536 | 65 | 90 | 2.0 | 3.0 | 0.00 | 0.00 | 0.00 | 9 | 1008.3 |
| 20260504110346 | 65 | 90 | 0.0 | 2.0 | 0.00 | 0.00 | 0.00 | 9 | 1008.3 |
| 20260504100614 | 63 | 315 | 0.0 | 2.0 | 0.00 | 0.00 | 0.00 | 9 | 1008.6 |
| 20260504100557 | 63 | 315 | 1.0 | 2.0 | 0.00 | 0.00 | 0.00 | 9 | 1008.5 |
| 20260504100129 | 63 | 0 | 0.0 | 0.0 | 0.00 | 0.00 | 0.00 | 9 | 1008.5 |
| 20260504081858 | 65 | 67 | 0.0 | 1.0 | 0.00 | 0.00 | 0.00 | 8 | 1008.4 |
| 20260504081438 | 66 | 0 | 0.0 | 0.0 | 0.00 | 0.00 | 0.00 | 8 | 1008.4 |
| 20260504081401 | 66 | 0 | 0.0 | 0.0 | 0.00 | 0.00 | 0.00 | 8 | 1008.4 |
| 20260504081028 | 66 | 0 | 0.0 | 0.0 | 0.00 | 0.00 | 0.00 | 8 | 1008.4 |
| 20260504080613 | 66 | 0 | 0.0 | 0.0 | 0.00 | 0.00 | 0.00 | 8 | 1008.3 |
| 20260504080533 | 66 | 0 | 0.0 | 1.0 | 0.00 | 0.00 | 0.00 | 8 | 1008.4 |
| 20260504080118 | 66 | 112 | 1.0 | 2.0 | 0.00 | 0.00 | 0.00 | 8 | 1008.3 |
| 20260504070148 | 63 | 0 | 0.0 | 0.0 | 0.00 | 0.00 | 0.00 | 9 | 1008.5 |
| 20260504060146 | 59 | 292 | 2.0 | 3.0 | 0.00 | 0.00 | 0.00 | 9 | 1008.3 |
| 20260504050611 | 59 | 292 | 2.0 | 3.0 | 0.00 | 0.00 | 0.00 | 9 | 1008.1 |
| 20260504050555 | 58 | 292 | 0.0 | 3.0 | 0.00 | 0.00 | 0.00 | 9 | 1008.0 |
| 20260504050126 | 59 | 0 | 0.0 | 0.0 | 0.00 | 0.00 | 0.00 | 9 | 1008.1 |
| 20260504045701 | 59 | 0 | 0.0 | 0.0 | 0.00 | 0.00 | 0.00 | 9 | 1008.0 |
| 20260504045350 | 59 | 0 | 0.0 | 0.0 | 0.00 | 0.00 | 0.00 | 9 | 1008.1 |
| 20260504044932 | 59 | 292 | 0.0 | 1.0 | 0.00 | 0.00 | 0.00 | 9 | 1008.0 |
| 20260504044446 | 59 | 292 | 0.0 | 1.0 | 0.00 | 0.00 | 0.00 | 9 | 1008.1 |
| 20260504044045 | 59 | 292 | 1.0 | 2.0 | 0.00 | 0.00 | 0.00 | 9 | 1008.2 |
| 20260504043615 | 59 | 292 | 1.0 | 2.0 | 0.00 | 0.00 | 0.00 | 9 | 1008.2 |
| 20260504043559 | 59 | 292 | 1.0 | 2.0 | 0.00 | 0.00 | 0.00 | 9 | 1008.2 |
| 20260504043130 | 60 | 292 | 2.0 | 2.0 | 0.00 | 0.00 | 0.00 | 9 | 1008.3 |
| 20260504042708 | 60 | 315 | 2.0 | 2.0 | 0.00 | 0.00 | 0.00 | 9 | 1008.3 |
| 20260504042705 | 60 | 315 | 2.0 | 2.0 | 0.00 | 0.00 | 0.00 | 9 | 1008.3 |
| 20260504042411 | 60 | 315 | 2.0 | 2.0 | 0.00 | 0.00 | 0.00 | 9 | 1008.3 |
| 20260504041929 | 61 | 270 | 1.0 | 2.0 | 0.00 | 0.00 | 0.00 | 9 | 1008.2 |
| 20260504041441 | 61 | 0 | 0.0 | 1.0 | 0.00 | 0.00 | 0.00 | 9 | 1008.3 |
| 20260504041040 | 61 | 0 | 0.0 | 0.0 | 0.00 | 0.00 | 0.00 | 9 | 1008.3 |
| 20260504040554 | 61 | 202 | 0.0 | 1.0 | 0.00 | 0.00 | 0.00 | 9 | 1008.2 |
| 20260504040126 | 61 | 157 | 0.0 | 2.0 | 0.00 | 0.00 | 0.00 | 9 | 1008.3 |
| 20260504035704 | 61 | 0 | 0.0 | 0.0 | 0.00 | 0.00 | 0.00 | 9 | 1008.4 |
| 20260504035702 | 61 | 0 | 0.0 | 0.0 | 0.00 | 0.00 | 0.00 | 9 | 1008.4 |
| 20260504035700 | 61 | 0 | 0.0 | 0.0 | 0.00 | 0.00 | 0.00 | 9 | 1008.4 |
| 20260504035359 | 61 | 0 | 0.0 | 0.0 | 0.00 | 0.00 | 0.00 | 9 | 1008.3 |
| 20260504034957 | 62 | 0 | 0.0 | 1.0 | 0.00 | 0.00 | 0.00 | 9 | 1008.4 |
| 20260504034556 | 62 | 0 | 0.0 | 1.0 | 0.00 | 0.00 | 0.00 | 9 | 1008.4 |
| 20260504034102 | 62 | 202 | 0.0 | 2.0 | 0.00 | 0.00 | 0.00 | 9 | 1008.4 |
| 20260504033611 | 62 | 0 | 0.0 | 1.0 | 0.00 | 0.00 | 0.00 | 9 | 1008.4 |
| 20260504033123 | 62 | 0 | 0.0 | 0.0 | 0.00 | 0.00 | 0.00 | 9 | 1008.8 |
| 20260504032711 | 62 | 225 | 0.0 | 1.0 | 0.00 | 0.00 | 0.00 | 9 | 1008.7 |
| 20260504032434 | 62 | 0 | 0.0 | 1.0 | 0.00 | 0.00 | 0.00 | 9 | 1008.8 |
| 20260504032255 | 62 | 0 | 0.0 | 0.0 | 0.00 | 0.00 | 0.00 | 9 | 1008.8 |
| 20260504031957 | 62 | 0 | 0.0 | 0.0 | 0.00 | 0.00 | 0.00 | 9 | 1008.9 |
| 20260504031503 | 62 | 0 | 0.0 | 0.0 | 0.00 | 0.00 | 0.00 | 9 | 1009.1 |
| 20260504031402 | 62 | 0 | 0.0 | 0.0 | 0.00 | 0.00 | 0.00 | 9 | 1009.0 |
| 20260504031024 | 62 | 0 | 0.0 | 0.0 | 0.00 | 0.00 | 0.00 | 9 | 1009.0 |
| 20260504030608 | 62 | 202 | 1.0 | 2.0 | 0.00 | 0.00 | 0.00 | 9 | 1009.0 |
| 20260504030535 | 62 | 202 | 1.0 | 2.0 | 0.00 | 0.00 | 0.00 | 9 | 1009.0 |
| 20260504030119 | 62 | 0 | 0.0 | 0.0 | 0.00 | 0.00 | 0.00 | 9 | 1009.0 |
| 20260504025709 | 62 | 0 | 0.0 | 0.0 | 0.00 | 0.00 | 0.00 | 9 | 1009.0 |
| 20260504025705 | 62 | 0 | 0.0 | 0.0 | 0.00 | 0.00 | 0.00 | 9 | 1009.0 |
| 20260504025449 | 62 | 0 | 0.0 | 0.0 | 0.00 | 0.00 | 0.00 | 9 | 1009.1 |
| 20260504025007 | 62 | 202 | 1.0 | 2.0 | 0.00 | 0.00 | 0.00 | 9 | 1009.2 |
| 20260504024703 | 62 | 0 | 0.0 | 0.0 | 0.00 | 0.00 | 0.00 | 9 | 1009.2 |
| 20260504024517 | 62 | 0 | 0.0 | 0.0 | 0.00 | 0.00 | 0.00 | 9 | 1009.1 |
| 20260504024047 | 62 | 0 | 0.0 | 0.0 | 0.00 | 0.00 | 0.00 | 9 | 1009.2 |
| 20260504023703 | 61 | 0 | 0.0 | 0.0 | 0.00 | 0.00 | 0.00 | 9 | 1009.3 |
| 20260504023629 | 61 | 0 | 0.0 | 0.0 | 0.00 | 0.00 | 0.00 | 9 | 1009.3 |
| 20260504023204 | 61 | 0 | 0.0 | 0.0 | 0.00 | 0.00 | 0.00 | 9 | 1009.2 |
| 20260504022712 | 61 | 0 | 0.0 | 0.0 | 0.00 | 0.00 | 0.00 | 9 | 1009.2 |
| 20260504022709 | 61 | 0 | 0.0 | 0.0 | 0.00 | 0.00 | 0.00 | 9 | 1009.2 |
| 20260504022446 | 61 | 0 | 0.0 | 0.0 | 0.00 | 0.00 | 0.00 | 9 | 1009.2 |
| 20260504022255 | 61 | 0 | 0.0 | 0.0 | 0.00 | 0.00 | 0.00 | 9 | 1009.2 |
| 20260504021850 | 61 | 0 | 0.0 | 0.0 | 0.00 | 0.00 | 0.00 | 9 | 1009.3 |
| 20260504021430 | 61 | 0 | 0.0 | 0.0 | 0.00 | 0.00 | 0.00 | 9 | 1009.1 |
| 20260504021025 | 61 | 0 | 0.0 | 0.0 | 0.00 | 0.00 | 0.00 | 9 | 1009.2 |
| 20260504020641 | 61 | 0 | 0.0 | 0.0 | 0.00 | 0.00 | 0.00 | 9 | 1009.1 |
| 20260504020605 | 61 | 0 | 0.0 | 0.0 | 0.00 | 0.00 | 0.00 | 9 | 1009.2 |